Plymouth, NH

10:34 AM EDT on March 29, 2017 (GMT -0400)
Plymouth

Weather History for K1P1 - April, 2013

Change the Weather History Date:

Tuesday, April 16, 2013

  Actual Average (KLCI) Record (KLCI)
Temperature  
Mean Temperature 46 °F -  
Max Temperature 62 °F 55 °F 87 °F (2012)
Min Temperature 30 °F 33 °F 24 °F (1992)
Degree Days  
Heating Degree Days 19    
Moisture  
Dew Point 39 °F    
Average Humidity 78    
Maximum Humidity 99    
Minimum Humidity 46    
Precipitation  
Precipitation 0.02 in - - ()
Sea Level Pressure  
Sea Level Pressure 30.19 in    
Wind  
Wind Speed 1 mph (SE)    
Max Wind Speed 12 mph    
Max Gust Speed 17 mph    
Visibility 10 miles    
Events Rain    
Averages and records for this station are not official NWS values.
T = Trace of Precipitation, MM = Missing Value Source: NWS Daily Summary

Daily Weather History Graph

Daily Weather History Graph

Search for Another Location

Airport or City:

Trip Planner

Search our weather history database for the weather conditions in past years. The results will help you decide how hot, cold, wet, or windy it might be!

Date:

Astronomy

Apr. 16, 2013 Rise Set
Actual Time 6:02 AM EDT 7:32 PM EDT
Civil Twilight 5:32 AM EDT 8:02 PM EDT
Nautical Twilight 4:55 AM EDT 8:38 PM EDT
Astronomical Twilight 4:17 AM EDT 9:17 PM EDT
Moon 10:12 AM EDT (4/16) 12:32 AM EDT (4/16)
Length of Visible Light 14h 30m
Length of Day
13h 30m
Waxing Crescent, 33% of the Moon is Illuminated
Apr 16
Waxing Crescent
Apr 18
First Quarter
Apr 25
Full
May 2
Last Quarter
May 9
New

Hourly Weather History & Observations

Time (EDT) Temp. Windchill Dew Point Humidity Pressure Visibility Wind Dir Wind Speed Gust Speed Precip Events Conditions
12:15 AM 37.4 °F - 33.4 °F 86% 30.37 in 10.0 mi Calm Calm - N/A   Unknown
12:35 AM 37.2 °F - 33.1 °F 85% 30.37 in 10.0 mi Calm Calm - N/A   Unknown
12:55 AM 36.1 °F - 32.5 °F 87% 30.36 in 10.0 mi Calm Calm - N/A   Unknown
1:15 AM 35.6 °F - 32.4 °F 88% 30.36 in 10.0 mi Calm Calm - N/A   Unknown
1:35 AM 34.3 °F - 32.0 °F 91% 30.36 in 10.0 mi Calm Calm - N/A   Unknown
1:55 AM 34.2 °F - 32.2 °F 92% 30.36 in 10.0 mi Calm Calm - N/A   Unknown
2:15 AM 33.4 °F - 32.0 °F 94% 30.35 in 10.0 mi Calm Calm - N/A   Unknown
2:35 AM 33.3 °F - 32.0 °F 95% 30.35 in 10.0 mi Calm Calm - N/A   Unknown
2:55 AM 32.7 °F - 32.0 °F 97% 30.35 in 10.0 mi Calm Calm - N/A   Unknown
3:15 AM 32.2 °F - 32.0 °F 99% 30.36 in 10.0 mi Calm Calm - N/A   Unknown
3:35 AM 32.0 °F - 31.3 °F 97% 30.35 in 10.0 mi Calm Calm - N/A   Unknown
3:55 AM 31.8 °F - 31.1 °F 97% 30.35 in 10.0 mi Calm Calm - N/A   Unknown
4:15 AM 31.8 °F - 31.1 °F 97% 30.36 in 10.0 mi Calm Calm - N/A   Unknown
4:35 AM 30.6 °F - 29.8 °F 97% 30.35 in 7.0 mi Calm Calm - N/A   Unknown
4:55 AM 31.6 °F - 31.1 °F 98% 30.35 in 7.0 mi Calm Calm - N/A   Unknown
5:15 AM 32.0 °F - 31.5 °F 98% 30.35 in 10.0 mi Calm Calm - N/A   Unknown
5:35 AM 32.4 °F - 32.0 °F 99% 30.34 in 10.0 mi Calm Calm - N/A   Unknown
5:55 AM 32.9 °F - 32.0 °F 96% 30.34 in 10.0 mi Calm Calm - N/A   Unknown
6:15 AM 33.8 °F - 32.4 °F 94% 30.34 in 10.0 mi Calm Calm - N/A   Unknown
6:35 AM 34.2 °F - 32.5 °F 94% 30.34 in 10.0 mi Calm Calm - N/A   Unknown
6:55 AM 34.7 °F - 32.5 °F 92% 30.34 in 10.0 mi Calm Calm - N/A   Unknown
7:15 AM 34.9 °F - 32.5 °F 91% 30.34 in 10.0 mi Calm Calm - N/A   Unknown
7:35 AM 35.6 °F - 32.9 °F 90% 30.34 in 10.0 mi Calm Calm - N/A   Unknown
7:55 AM 36.1 °F - 33.3 °F 89% 30.34 in 10.0 mi Calm Calm - N/A   Unknown
8:15 AM 36.9 °F - 33.6 °F 88% 30.33 in 10.0 mi Calm Calm - N/A   Unknown
8:35 AM 37.6 °F - 33.8 °F 86% 30.33 in 10.0 mi Calm Calm - N/A   Unknown
8:55 AM 38.8 °F - 34.0 °F 83% 30.32 in 10.0 mi Calm Calm - N/A   Unknown
9:15 AM 39.7 °F - 34.2 °F 80% 30.31 in 10.0 mi Calm Calm - N/A   Unknown
9:35 AM 42.1 °F 39.2 °F 34.0 °F 73% 30.30 in 10.0 mi East 4.6 mph - N/A   Unknown
9:55 AM 43.7 °F 39.7 °F 33.4 °F 67% 30.30 in 10.0 mi East 6.9 mph - N/A   Unknown
10:15 AM 45.3 °F 41.6 °F 33.4 °F 63% 30.29 in 10.0 mi East 6.9 mph - N/A   Unknown
10:35 AM 46.6 °F - 33.1 °F 59% 30.28 in 10.0 mi ENE 8.1 mph - N/A   Unknown
11:15 AM 48.0 °F - 32.9 °F 56% 30.26 in 10.0 mi ENE 3.5 mph - N/A   Unknown
11:35 AM 49.5 °F - 33.4 °F 54% 30.24 in 10.0 mi ENE 3.5 mph - N/A   Unknown
11:55 AM 52.2 °F - 35.1 °F 52% 30.21 in 10.0 mi NE 5.8 mph - N/A   Unknown
12:15 PM 53.6 °F - 35.2 °F 50% 30.20 in 10.0 mi Calm Calm - N/A   Unknown
12:35 PM 54.1 °F - 35.4 °F 49% 30.18 in 10.0 mi NE 3.5 mph - N/A   Unknown
12:55 PM 54.3 °F - 36.0 °F 50% 30.16 in 10.0 mi NNE 4.6 mph - N/A   Unknown
1:15 PM 55.4 °F - 36.9 °F 50% 30.15 in 10.0 mi NE 4.6 mph - N/A   Unknown
1:35 PM 56.5 °F - 37.4 °F 49% 30.13 in 10.0 mi North 3.5 mph - N/A   Unknown
1:55 PM 56.3 °F - 37.4 °F 49% 30.13 in 10.0 mi NNW 3.5 mph - N/A   Unknown
2:15 PM 56.8 °F - 37.8 °F 49% 30.12 in 10.0 mi Calm Calm - N/A   Unknown
2:35 PM 58.1 °F - 39.4 °F 50% 30.10 in 10.0 mi Calm Calm - N/A   Unknown
2:55 PM 61.0 °F - 41.4 °F 48% 30.09 in 10.0 mi Calm Calm - N/A   Unknown
3:15 PM 62.6 °F - 41.7 °F 46% 30.08 in 10.0 mi SSW 10.4 mph 16.1 mph N/A   Unknown
3:35 PM 61.5 °F - 42.4 °F 50% 30.08 in 10.0 mi SSW 3.5 mph - N/A Rain Light Rain
4:15 PM 60.8 °F - 42.8 °F 52% 30.07 in 10.0 mi SSW 11.5 mph 17.3 mph N/A Rain Light Rain
4:35 PM 57.9 °F - 46.2 °F 65% 30.07 in 10.0 mi South 4.6 mph - N/A Rain Light Rain
4:55 PM 55.9 °F - 48.0 °F 75% 30.05 in 10.0 mi South 3.5 mph - N/A Rain Light Rain
5:15 PM 55.2 °F - 48.9 °F 79% 30.04 in 10.0 mi Calm Calm - 0.01 in Rain Light Rain
5:35 PM 54.7 °F - 49.1 °F 81% 30.05 in 10.0 mi Calm Calm - 0.01 in   Light Drizzle
5:55 PM 54.0 °F - 49.5 °F 85% 30.04 in 10.0 mi Calm Calm - 0.01 in Rain Light Rain
6:15 PM 54.1 °F - 49.1 °F 83% 30.04 in 10.0 mi ESE 3.5 mph - N/A Rain Rain
6:35 PM 54.0 °F - 49.5 °F 85% 30.02 in 10.0 mi Calm Calm - N/A   Unknown
6:55 PM 55.4 °F - 49.1 °F 79% 30.00 in 10.0 mi South 4.6 mph - N/A   Unknown
7:15 PM 54.3 °F - 50.0 °F 85% 30.01 in 10.0 mi SSW 6.9 mph - N/A   Unknown
7:35 PM 56.3 °F - 49.1 °F 77% 30.00 in 10.0 mi SSW 5.8 mph - N/A   Unknown
7:55 PM 56.8 °F - 49.1 °F 75% 29.99 in 10.0 mi South 5.8 mph - N/A   Unknown
8:15 PM 56.8 °F - 49.3 °F 76% 29.98 in 10.0 mi South 5.8 mph - N/A   Unknown
8:35 PM 57.0 °F - 49.3 °F 75% 29.98 in 10.0 mi South 5.8 mph - N/A   Unknown
8:55 PM 57.4 °F - 49.5 °F 75% 29.98 in 10.0 mi South 5.8 mph - N/A   Unknown
9:15 PM 57.6 °F - 49.3 °F 74% 29.97 in 10.0 mi South 6.9 mph - N/A   Unknown
9:35 PM 57.0 °F - 49.6 °F 76% 29.98 in 10.0 mi SSW 4.6 mph - N/A Rain Light Rain
9:55 PM 56.1 °F - 50.2 °F 80% 29.99 in 10.0 mi Calm Calm - 0.01 in Rain Rain
10:15 PM 53.6 °F - 50.9 °F 91% 29.99 in 7.0 mi Calm Calm - N/A   Unknown
10:35 PM 53.4 °F - 51.1 °F 92% 29.99 in 7.0 mi Calm Calm - N/A   Drizzle
10:55 PM 54.1 °F - 51.8 °F 92% 29.98 in 10.0 mi NNE 3.5 mph - N/A   Drizzle
11:15 PM 52.7 °F - 50.9 °F 94% 29.99 in 7.0 mi Calm Calm - N/A   Light Drizzle
11:35 PM 53.6 °F - 51.8 °F 94% 29.99 in 10.0 mi NW 3.5 mph - N/A   Unknown
11:55 PM 54.0 °F - 51.1 °F 90% 29.98 in 10.0 mi NNW 4.6 mph - N/A   Unknown